Location: Brantley
(31.5822°N, 86.2569°W)
Time: 21:05:51
(UTC+00:00)

Injun/Solrad 3 - Pass Details

Date: 25 February 2026
Orbit: 872 x 984 km, 66.8° (Epoch: 8 March)

Event Time Altitude Azimuth Distance (km) Brightness Sun altitude
Rises 02:21:59 0° 311° (NW) 3,626 11.8 -35.2°
Reaches altitude 10° 02:25:41 10° 290° (WNW) 2,697 11.1 -36.0°
Maximum altitude 02:29:04 15° 257° (WSW) 2,356 10.5 -36.7°
Drops below altitude 10° 02:32:28 10° 224° (SW) 2,717 10.6 -37.4°
Sets 02:36:15 0° 202° (SSW) 3,670 11.1 -38.2°
